Home   Weather   Newark   Past weeks

Flag for USA Past Weather in Newark, New Jersey, USA — Yesterday and Last 2 Weeks

Now
57 °F

Mostly cloudy.


Feels Like: 56 °F
Forecast: 49 / 54 °F
Wind: 7 mph from East

Location: Newark International Airport

Current Time: Apr 24, 2017 at 11:06:35 pm

Latest Report: Apr 24, 2017 at 9:51 pm


Visibility: 10 mi

Pressure: 30.12 "Hg

Humidity: 47%

Dew Point: 37 °F

Location of NewarkLocation

Past Weather in Newark — Graph

°F

Newark Temperature Yesterday

Maximum temperature yesterday: 64 °F (at 1:51 pm)
Minimum temperature yesterday: 46 °F (at 5:51 am)
Average temperature yesterday: 54 °F

High & Low Weather Summary for the Past Weeks

 TemperatureHumidityPressure
High87 °F (Apr 16, 1:51 pm)96% (Apr 21, 7:22 am)30.53 "Hg (Apr 21, 7:22 am)
Low46 °F (Apr 14, 4:51 am)17% (Apr 17, 3:51 pm)29.76 "Hg (Apr 16, 6:51 pm)
Average59 °F58%30.14 "Hg
* Reported Apr 9 9:51 pm — Apr 24 9:51 pm, Newark, Weather by CustomWeather, © 2017

Note: Actual official high and low records may vary slightly from our data, if they occured in-between our weather recording intervals... More about our weather records

Advertising

Newark Weather History for the Previous 24 Hours

Scroll right to see more
 ConditionsComfort  
Time TempWeatherWind HumidityBarometerVisibility
9:51 pm
Mon, Apr 24
57 °FMostly cloudy.7 mph47%30.12 "Hg10 mi
8:51 pm56 °FMostly cloudy.6 mph62%30.12 "Hg10 mi
7:51 pm55 °FMostly cloudy.6 mph62%30.12 "Hg10 mi
6:51 pm56 °FMostly cloudy.6 mph53%30.13 "Hg10 mi
5:51 pm56 °FMostly cloudy.5 mph58%30.14 "Hg10 mi
4:51 pm56 °FOvercast.3 mph58%30.14 "Hg10 mi
3:51 pm56 °FLight rain. Overcast.5 mph60%30.14 "Hg10 mi
2:51 pm57 °FLight rain. Mostly cloudy.6 mph55%30.14 "Hg10 mi
1:51 pm57 °FMostly cloudy.5 mph55%30.15 "Hg10 mi
12:51 pm57 °FMostly cloudy.6 mph60%30.15 "Hg10 mi
11:51 am57 °FMore clouds than sun.6 mph60%30.16 "Hg10 mi
10:51 am55 °FCloudy.No wind67%30.17 "Hg10 mi
9:51 am54 °FCloudy.5 mph72%30.17 "Hg10 mi
8:51 am53 °FPartly sunny.5 mph72%30.16 "Hg10 mi
7:51 am51 °FPartly sunny.3 mph77%30.16 "Hg10 mi
6:51 am51 °FPartly sunny.3 mph80%30.14 "Hg10 mi
5:51 am48 °FPassing clouds.3 mph86%30.12 "Hg10 mi
4:51 am48 °FPassing clouds.No wind83%30.12 "Hg10 mi
3:51 am48 °FPassing clouds.No wind80%30.11 "Hg10 mi
2:51 am49 °FPassing clouds.3 mph77%30.11 "Hg10 mi
1:51 am50 °FPassing clouds.5 mph74%30.12 "Hg10 mi
12:51 am51 °FPassing clouds.3 mph71%30.13 "Hg10 mi
11:51 pm
Sun, Apr 23
51 °FHigh level clouds.6 mph71%30.12 "Hg10 mi
Weather by CustomWeather, © 2017

See weather overviewHow to use our weather pages